Wind_Speed
45 47 50 55 58 57 57 58 60 53 44 41 36 35 37 42 43 43 42 39 38 38 37 34 32 30 28 26 24 23 20 16 12 12 11 11 11 14 15 16 16 13 16 20 24 28 31
46 44 44 47 51 55 54 53 52 54 51 45 41 40 38 38 40 41 38 37 36 35 34 31 28 25 25 23 18 15 11 9 9 9 9 10 11 12 12 8 12 16 20 24 28 30 33
45 44 43 42 43 46 49 51 49 48 47 46 41 37 35 34 32 31 30 31 31 29 26 24 22 20 17 15 10 10 8 8 8 9 8 9 10 4 8 12 15 18 21 24 27 30 32
43 44 42 42 40 39 41 42 44 45 44 41 41 37 34 31 28 26 23 21 20 19 19 17 16 15 14 12 10 9 9 9 8 6 7 3 4 7 11 14 17 19 22 22 24 29 33
38 40 41 40 40 39 36 35 35 36 38 39 38 36 35 32 28 26 24 22 20 18 17 16 14 14 13 13 11 10 8 5 3 2 1 3 7 10 13 15 15 18 19 23 27 30 34
33 34 36 37 38 36 36 34 31 30 29 29 30 31 31 30 28 27 24 22 20 19 18 15 14 12 11 9 8 6 5 4 1 2 5 7 10 13 15 17 20 21 23 28 31 33 38
27 28 29 32 34 34 34 32 31 29 26 24 22 21 21 21 20 18 17 15 14 12 10 10 9 10 7 6 6 4 3 0 3 5 7 10 13 15 17 20 22 25 28 30 33 35 36
21 23 24 26 28 29 31 31 30 27 26 24 22 19 17 15 14 14 14 13 12 11 11 10 9 8 7 5 4 2 2 3 6 9 12 14 16 18 21 23 26 28 30 32 33 36 37
20 20 20 20 22 23 24 26 27 27 26 23 21 19 17 15 13 11 9 8 7 7 7 7 6 4 3 0 1 3 5 8 10 12 13 16 19 22 25 27 29 31 33 34 35 35 37
16 17 18 19 19 19 19 19 20 21 22 23 22 19 16 13 12 10 9 7 5 3 3 4 2 3 5 6 7 9 10 12 15 17 19 22 25 27 29 30 31 32 33 35 36 36 38
17 16 16 16 16 16 16 16 16 16 15 16 18 18 17 15 13 11 9 9 8 7 8 8 8 9 11 12 14 15 18 20 21 24 26 28 31 32 33 34 36 38 40 40 40 39 38
16 16 16 15 15 16 15 15 15 14 14 14 13 13 14 14 14 13 12 10 9 9 10 11 12 14 16 17 19 20 22 23 26 28 30 31 33 34 36 38 40 42 43 43 42 42 41
16 17 16 15 15 15 15 15 16 15 15 14 13 14 14 13 12 12 13 13 13 14 13 14 16 18 20 21 23 24 25 27 29 30 31 32 35 37 38 40 40 41 43 44 45 45 43
23 21 20 19 18 18 16 14 14 15 18 18 18 17 16 17 16 16 15 15 17 17 17 18 18 19 21 21 23 25 25 25 27 28 29 31 32 35 35 37 38 40 41 42 44 43 42
27 26 25 24 21 21 20 17 15 16 16 19 24 23 21 20 20 21 21 21 20 21 22 22 24 25 24 27 28 29 29 31 30 31 32 34 33 34 36 38 40 40 42 42 42 43 45
28 26 26 28 27 26 23 21 20 19 21 22 22 24 28 26 24 24 25 27 28 28 28 28 29 29 31 31 32 33 34 34 35 36 37 38 38 37 38 38 40 41 41 42 43 45 47
29 29 30 30 30 29 29 27 25 26 25 24 24 24 24 28 30 29 29 29 30 32 33 34 35 35 36 36 36 38 39 40 39 40 41 42 42 41 42 41 42 40 40 41 42 44 46
34 33 34 33 34 35 32 32 30 31 33 29 29 28 29 28 28 29 31 33 33 33 34 34 36 37 38 39 40 41 42 43 43 43 43 43 47 46 44 45 45 43 41 42 44 43 45
38 38 38 37 37 37 36 35 36 37 36 35 33 31 32 33 33 32 31 33 35 36 38 40 41 40 41 42 45 45 46 47 48 50 50 50 52 51 48 46 48 45 37 37 43 43 40
43 43 39 39 38 36 36 35 37 39 39 37 37 36 36 38 38 39 38 37 38 38 39 40 44 46 48 47 48 49 50 52 47 48 46 48 44 42 43 40 43 44 41 41 50 48 49
44 43 43 43 41 40 39 40 41 42 43 43 43 43 41 43 40 42 42 43 44 45 43 45 47 48 50 50 50 49 47 47 44 41 39 42 40 39 37 39 41 41 39 40 42 48 54
50 50 47 46 44 45 47 45 45 45 46 47 48 47 47 47 46 47 46 45 45 47 47 47 48 51 49 50 52 48 49 47 43 42 42 42 44 44 41 41 45 47 43 46 47 50 54
52 52 52 51 51 51 50 49 48 48 48 47 46 47 50 51 51 48 47 48 49 48 48 49 51 51 50 51 49 51 50 44 45 46 48 48 48 50 48 48 50 48 50 51 52 50 53
58 57 57 55 56 54 53 51 48 48 44 44 47 48 48 46 46 46 47 46 47 49 50 50 50 52 51 49 49 49 47 46 49 50 54 56 57 58 58 58 57 59 56 57 57 57 56
62 63 63 62 59 52 50 50 48 49 49 50 49 48 48 48 48 49 50 52 54 55 56 57 55 55 54 53 54 56 55 57 56 57 57 57 59 63 64 64 64 63 66 64 62 61 61
65 64 63 61 57 56 56 56 56 57 59 58 56 56 56 55 54 56 55 56 60 60 59 59 59 60 57 58 61 62 62 65 66 68 65 63 62 62 65 65 66 65 65 67 66 68 68
63 61 60 61 59 58 59 59 61 62 61 60 60 60 61 62 61 61 64 65 67 67 64 64 66 65 64 64 65 66 67 69 69 70 69 67 64 64 66 69 71 65 66 69 68 70 70
62 63 64 63 62 63 62 62 62 63 64 65 65 65 66 67 66 67 68 69 70 71 72 70 69 67 67 69 70 70 67 67 69 67 68 65 66 66 67 69 71 74 72 68 71 71 73
65 65 65 66 66 66 68 68 68 68 69 69 70 71 70 68 69 70 68 68 70 68 67 67 64 64 67 69 69 70 69 71 68 68 63 64 63 66 68 69 68 68 68 69 71 69 70
Wind_Direction
45 43 45 50 51 52 55 61 61 62 77 83 94 107 109 114 118 123 128 135 142 149 155 159 162 170 176 183 188 195 205 217 232 249 258 265 275 284 289 298 311 326 339 340 339 338 336
52 49 48 49 53 56 57 60 64 67 63 68 82 90 98 107 117 125 130 135 142 148 156 160 165 171 180 183 188 195 208 222 232 238 253 259 274 295 308 326 343 346 341 341 337 336 336
53 55 53 52 53 57 60 63 66 69 76 71 70 77 88 100 109 118 125 133 140 147 153 159 165 174 175 170 169 175 189 208 215 226 245 279 302 321 347 347 346 342 338 335 329 328 334
49 54 57 56 55 55 60 64 67 71 74 77 83 80 82 86 91 100 106 115 125 135 145 150 158 161 155 154 152 166 185 198 218 265 285 276 320 343 340 339 339 335 332 321 323 330 332
39 48 55 59 58 58 57 61 65 71 75 79 81 84 87 86 89 94 101 108 115 122 129 133 136 132 136 157 155 178 197 234 253 200 297 335 336 335 331 337 331 320 312 319 321 322 324
34 38 43 50 59 62 62 59 63 67 70 76 81 86 90 92 96 99 99 102 108 112 118 125 133 140 159 168 189 189 161 148 148 325 332 332 327 330 330 326 314 312 315 315 317 319 320
25 32 34 39 41 50 60 64 65 63 68 73 77 82 90 96 99 103 108 113 117 122 122 129 141 149 147 145 144 143 143 188 304 323 317 327 328 320 314 309 307 310 314 316 315 317 323
21 20 25 31 34 38 43 53 60 66 67 69 71 75 81 91 101 108 113 117 119 124 133 140 146 140 135 133 146 156 238 303 315 319 323 318 315 309 305 304 306 309 311 309 313 315 321
12 12 15 19 23 30 34 40 44 48 56 62 65 69 72 76 81 92 102 117 124 127 133 125 126 121 138 143 308 296 299 304 310 308 304 302 300 298 300 302 304 305 307 310 313 315 319
10 14 11 6 11 14 20 24 31 37 39 40 48 51 56 63 64 69 71 76 85 89 53 44 15 347 339 319 321 310 306 302 299 297 297 299 299 299 299 301 302 304 307 310 311 313 316
352 356 356 0 3 2 2 3 7 15 24 31 27 30 35 36 37 39 34 30 22 3 358 345 334 328 327 325 316 310 307 304 303 303 302 301 303 304 304 304 304 306 307 310 313 314 313
342 344 345 346 345 345 349 352 349 348 354 355 2 5 9 10 11 12 12 8 356 345 342 331 326 322 320 314 312 307 305 300 299 300 300 300 301 302 302 303 304 305 308 310 307 308 311
324 325 325 326 328 330 332 336 335 337 335 332 331 331 333 335 339 340 343 345 342 338 327 323 321 316 310 308 306 303 301 302 302 302 300 299 299 298 299 301 303 304 305 308 310 312 314
310 315 313 312 319 322 322 319 320 326 329 327 319 315 311 312 313 315 315 316 316 317 317 315 314 311 308 304 301 300 298 299 299 299 299 299 301 300 303 304 305 307 309 311 312 313 316
301 305 310 305 308 309 307 308 310 315 318 319 318 313 305 301 300 300 302 299 299 299 302 302 304 302 302 303 302 300 300 303 303 303 303 302 303 302 303 305 306 306 307 308 309 309 310
294 296 302 303 301 304 298 295 298 302 307 309 311 303 300 300 299 297 294 292 292 293 294 293 294 295 297 298 297 296 297 298 300 301 302 303 303 304 304 304 304 305 306 306 308 306 308
287 290 292 293 296 299 297 295 294 295 295 295 297 301 300 295 296 295 294 292 289 288 288 291 292 293 293 294 295 295 295 296 297 298 298 299 297 300 301 302 301 301 302 303 302 303 302
283 285 286 286 288 294 292 291 288 289 292 289 288 290 294 293 294 294 293 296 294 292 291 291 291 292 292 293 293 292 293 294 295 296 296 297 297 299 298 301 300 302 303 301 299 301 301
279 281 281 282 285 289 289 286 287 289 292 287 287 285 289 290 292 289 289 289 291 292 294 294 293 292 292 292 293 293 295 297 300 300 299 298 297 297 297 298 298 300 303 302 298 296 299
277 278 279 279 281 282 284 286 285 287 290 284 281 281 283 285 288 288 288 287 289 289 290 291 292 292 291 292 292 295 296 295 298 297 298 296 296 296 299 298 298 301 306 308 303 305 299
273 274 275 277 277 278 282 285 283 285 287 284 286 283 287 287 285 286 286 288 288 288 288 289 291 291 290 291 290 293 295 295 296 294 291 291 293 292 294 293 291 292 301 300 300 303 299
274 275 276 278 279 282 287 284 285 284 283 283 286 286 287 289 289 287 286 285 286 287 286 287 289 289 290 291 289 293 290 292 292 291 292 289 291 289 290 290 288 290 295 292 295 299 297
273 276 278 280 282 284 287 289 288 283 285 284 281 282 284 286 285 284 284 285 287 286 287 291 295 294 291 290 291 287 288 287 284 285 285 285 285 285 285 288 286 289 287 292 293 295 293
277 277 278 280 281 283 284 284 285 285 283 284 285 284 286 287 289 289 290 289 289 289 289 292 292 292 291 289 288 286 284 284 285 287 288 289 289 286 288 289 287 289 295 293 293 293 291
275 277 279 278 279 278 278 278 280 278 283 284 282 282 282 283 284 287 288 288 288 288 290 290 289 289 288 286 284 284 283 282 281 282 284 286 284 285 285 287 288 290 290 291 292 293 291
271 272 273 273 275 277 277 278 279 281 282 283 283 283 283 284 285 285 285 286 287 286 284 285 285 287 284 281 279 279 281 281 282 283 282 282 284 284 286 287 287 289 289 289 292 294 293
267 269 271 273 273 275 277 279 280 280 279 279 280 281 281 284 284 284 284 286 287 285 282 283 285 285 282 280 278 277 277 279 280 279 281 282 284 285 288 289 286 288 288 288 289 286 286
265 266 267 269 271 274 275 275 276 276 276 278 279 279 280 281 283 283 283 283 284 283 283 284 283 284 282 280 280 281 283 283 281 282 287 287 287 288 286 285 289 291 292 291 287 287 286
264 265 268 269 270 272 274 276 276 276 277 278 279 279 278 279 280 281 281 282 283 282 284 285 286 284 283 283 283 283 283 281 283 283 286 287 285 285 285 287 288 289 287 287 288 288 289
Height
5793 5785 5778 5770 5763 5754 5747 5741 5738 5737 5735 5734 5734 5735 5736 5738 5741 5747 5753 5760 5767 5773 5780 5786 5791 5796 5801 5805 5809 5811 5814 5817 5819 5823 5824 5825 5827 5827 5827 5827 5825 5823 5821 5819 5816 5814 5811
5802 5796 5789 5782 5776 5770 5763 5757 5753 5750 5750 5750 5749 5750 5751 5753 5756 5759 5765 5770 5775 5781 5786 5791 5796 5799 5803 5807 5809 5812 5816 5818 5820 5822 5824 5825 5826 5826 5825 5824 5822 5819 5816 5814 5811 5809 5806
5810 5805 5799 5794 5788 5783 5779 5773 5768 5766 5763 5763 5764 5765 5766 5767 5770 5773 5776 5779 5784 5788 5791 5795 5799 5803 5806 5810 5812 5813 5815 5818 5821 5822 5823 5824 5824 5824 5822 5820 5818 5816 5814 5811 5809 5806 5802
5817 5813 5809 5803 5799 5795 5790 5787 5784 5780 5778 5776 5775 5777 5779 5780 5782 5784 5786 5788 5791 5795 5798 5801 5804 5807 5808 5810 5812 5815 5818 5820 5821 5822 5822 5822 5822 5820 5819 5817 5815 5813 5811 5810 5806 5801 5796
5824 5820 5817 5813 5808 5804 5801 5798 5795 5793 5791 5789 5787 5787 5787 5789 5791 5793 5795 5797 5799 5801 5804 5806 5808 5810 5812 5814 5815 5817 5819 5819 5820 5820 5821 5820 5819 5818 5816 5814 5813 5813 5810 5805 5801 5797 5791
5830 5827 5823 5820 5817 5814 5810 5808 5805 5803 5801 5800 5798 5798 5798 5798 5799 5800 5803 5804 5806 5808 5809 5810 5811 5814 5815 5816 5816 5817 5818 5818 5819 5819 5818 5818 5817 5815 5813 5812 5811 5808 5805 5801 5796 5793 5785
5833 5831 5828 5825 5822 5820 5818 5815 5814 5811 5809 5808 5807 5807 5806 5806 5806 5807 5808 5809 5812 5813 5812 5813 5814 5815 5815 5816 5816 5817 5817 5817 5817 5817 5817 5815 5814 5812 5811 5810 5807 5804 5800 5796 5792 5786 5782
5837 5834 5832 5829 5827 5825 5822 5820 5819 5818 5817 5815 5814 5813 5813 5812 5812 5812 5812 5813 5813 5815 5815 5815 5815 5815 5815 5815 5816 5816 5815 5816 5815 5814 5813 5813 5811 5809 5808 5805 5802 5799 5795 5792 5788 5781 5776
5838 5836 5834 5832 5830 5828 5826 5824 5822 5820 5820 5820 5819 5819 5818 5817 5817 5816 5816 5816 5816 5816 5816 5816 5815 5815 5815 5815 5814 5814 5814 5813 5812 5811 5810 5809 5808 5806 5803 5801 5798 5794 5791 5787 5783 5778 5773
5841 5838 5836 5833 5831 5830 5829 5827 5826 5824 5822 5820 5820 5820 5820 5820 5821 5819 5819 5818 5818 5817 5817 5818 5816 5816 5815 5813 5813 5811 5810 5810 5809 5808 5807 5806 5804 5802 5799 5796 5793 5790 5787 5783 5779 5774 5768
5840 5839 5837 5835 5833 5831 5830 5828 5828 5826 5825 5823 5822 5820 5820 5819 5819 5818 5818 5817 5817 5816 5816 5816 5814 5813 5812 5812 5811 5809 5808 5807 5806 5805 5804 5802 5798 5796 5793 5791 5788 5784 5780 5777 5773 5768 5765
5839 5838 5836 5834 5833 5831 5831 5829 5828 5827 5825 5824 5823 5822 5820 5819 5818 5817 5816 5815 5815 5816 5814 5813 5812 5810 5810 5808 5807 5805 5804 5803 5802 5800 5798 5796 5793 5790 5787 5784 5781 5778 5774 5769 5766 5762 5759
5836 5835 5835 5833 5832 5830 5829 5828 5827 5826 5825 5824 5823 5822 5821 5820 5819 5817 5815 5815 5815 5812 5812 5810 5808 5807 5805 5804 5802 5801 5801 5800 5798 5796 5793 5791 5787 5784 5782 5778 5775 5771 5766 5761 5757 5753 5750
5833 5832 5831 5830 5829 5828 5827 5825 5824 5823 5822 5821 5821 5819 5818 5817 5816 5815 5814 5813 5812 5811 5809 5807 5805 5804 5802 5801 5799 5797 5796 5794 5791 5788 5786 5783 5783 5778 5775 5771 5767 5762 5759 5755 5749 5745 5742
5828 5828 5827 5826 5825 5824 5823 5822 5821 5820 5819 5818 5817 5815 5814 5813 5812 5811 5811 5809 5807 5806 5805 5803 5801 5799 5799 5795 5794 5791 5790 5787 5785 5783 5780 5776 5776 5772 5768 5764 5760 5755 5751 5747 5742 5738 5734
5822 5821 5821 5820 5819 5818 5818 5816 5815 5815 5814 5814 5812 5812 5810 5808 5806 5805 5804 5803 5801 5800 5799 5797 5795 5794 5791 5789 5787 5785 5783 5781 5778 5775 5772 5769 5766 5764 5760 5757 5752 5748 5744 5738 5734 5728 5724
5815 5814 5813 5813 5813 5812 5811 5810 5809 5808 5808 5807 5807 5806 5804 5803 5800 5799 5797 5796 5794 5792 5791 5790 5787 5785 5783 5782 5779 5776 5773 5771 5768 5766 5763 5759 5758 5756 5750 5748 5743 5741 5736 5731 5726 5722 5715
5806 5805 5805 5805 5805 5805 5804 5803 5803 5802 5800 5799 5799 5799 5797 5795 5795 5792 5790 5788 5787 5785 5782 5781 5778 5776 5774 5772 5769 5767 5764 5762 5759 5755 5752 5749 5744 5745 5743 5738 5733 5730 5727 5722 5715 5714 5709
5797 5797 5797 5797 5797 5797 5796 5795 5794 5794 5794 5791 5790 5790 5788 5786 5785 5784 5783 5780 5777 5776 5774 5772 5769 5767 5765 5762 5759 5756 5754 5752 5749 5746 5741 5738 5733 5729 5729 5728 5722 5719 5718 5714 5706 5703 5705
5786 5787 5788 5788 5787 5787 5787 5786 5785 5784 5783 5783 5782 5782 5782 5778 5777 5774 5773 5772 5769 5768 5765 5762 5759 5757 5754 5753 5748 5746 5741 5738 5736 5732 5730 5724 5725 5721 5718 5716 5710 5706 5708 5705 5690 5690 5686
5776 5777 5777 5778 5778 5779 5778 5777 5776 5774 5772 5771 5771 5771 5769 5767 5768 5765 5763 5760 5758 5755 5756 5752 5749 5746 5743 5742 5738 5735 5733 5728 5725 5722 5719 5715 5714 5711 5711 5707 5702 5699 5701 5697 5690 5683 5673
5765 5766 5766 5767 5766 5766 5766 5765 5764 5763 5761 5760 5757 5758 5759 5757 5755 5753 5751 5749 5748 5745 5742 5739 5739 5733 5730 5728 5726 5726 5721 5718 5716 5711 5708 5705 5702 5699 5700 5697 5692 5688 5691 5686 5683 5677 5668
5752 5753 5754 5754 5753 5753 5752 5752 5752 5751 5751 5749 5747 5746 5744 5744 5743 5743 5741 5738 5735 5734 5732 5729 5724 5720 5719 5714 5713 5710 5709 5708 5704 5701 5696 5692 5690 5686 5684 5683 5679 5679 5675 5672 5669 5664 5657
5737 5738 5739 5739 5740 5740 5740 5739 5738 5738 5737 5738 5737 5736 5734 5733 5731 5729 5728 5728 5725 5720 5717 5716 5712 5708 5707 5703 5700 5698 5698 5697 5694 5691 5687 5683 5678 5673 5670 5667 5664 5660 5659 5655 5652 5647 5643
5723 5724 5724 5725 5726 5726 5726 5726 5725 5724 5724 5725 5725 5725 5723 5722 5721 5719 5715 5713 5711 5708 5705 5701 5699 5695 5693 5690 5686 5684 5685 5681 5680 5677 5674 5671 5666 5658 5655 5651 5649 5649 5643 5639 5634 5630 5626
5707 5709 5709 5709 5711 5712 5712 5711 5711 5710 5710 5710 5710 5709 5709 5709 5710 5706 5701 5698 5695 5692 5690 5686 5683 5681 5679 5675 5670 5666 5666 5662 5659 5656 5655 5653 5650 5646 5639 5634 5631 5630 5625 5620 5615 5610 5606
5692 5693 5695 5694 5695 5696 5696 5696 5696 5695 5695 5694 5693 5692 5692 5693 5693 5687 5685 5683 5679 5675 5673 5670 5667 5665 5662 5657 5653 5652 5651 5645 5644 5639 5638 5635 5634 5631 5624 5615 5614 5613 5606 5602 5600 5595 5589
5676 5676 5678 5678 5679 5680 5679 5680 5679 5679 5679 5679 5677 5675 5675 5677 5675 5671 5667 5664 5661 5656 5655 5653 5650 5646 5642 5638 5634 5630 5635 5630 5625 5625 5619 5621 5617 5615 5610 5604 5599 5592 5586 5581 5574 5574 5568
5657 5659 5660 5661 5661 5661 5663 5664 5663 5661 5660 5659 5660 5657 5656 5658 5658 5653 5649 5647 5642 5637 5637 5635 5632 5624 5620 5616 5614 5611 5614 5609 5608 5607 5608 5599 5599 5593 5590 5588 5580 5575 5566 5555 5551 5549 5548